Weather History for KSHV - September, 2012

Change the Weather History Date:

Monday, September 10, 2012

  Actual Average Record
Temperature  
Mean Temperature 74 °F 79 °F  
Max Temperature 91 °F 90 °F 102 °F (1980)
Min Temperature 56 °F 68 °F 53 °F (1880)
Degree Days  
Heating Degree Days 0 0  
Month to date heating degree days 0 0  
Since 1 July heating degree days 0 0  
Cooling Degree Days 9 14  
Month to date cooling degree days 189 152  
Year to date cooling degree days 2596 2114  
Growing Degree Days 23 (Base 50)    
Moisture  
Dew Point 54 °F    
Average Humidity 55    
Maximum Humidity 86    
Minimum Humidity 24    
Precipitation  
Precipitation 0.00 in 0.12 in 1.87 in (1966)
Month to date precipitation 0.03 0.98  
Year to date precipitation 33.72 34.97  
Snow  
Snow 0.00 in - - ()
Month to date snowfall 0.0  
Since 1 July snowfall 0.0  
Since 1 September snowfall 0.0  
Snow Depth 0.00 in    
Sea Level Pressure  
Sea Level Pressure 30.07 in    
Wind  
Wind Speed 3 mph (SE)    
Max Wind Speed 10 mph    
Max Gust Speed 21 mph    
Visibility 10 miles    
Events      
T = Trace of Precipitation, MM = Missing Value Source: NWS Daily Summary

Daily Weather History Graph

Daily Weather History Graph

Search for Another Location

Airport or City:

Trip Planner

Search our weather history database for the weather conditions in past years. The results will help you decide how hot, cold, wet, or windy it might be!

Date:

Astronomy

Sep. 10, 2012 Rise Set
Actual Time 6:56 AM CDT 7:27 PM CDT
Civil Twilight 6:31 AM CDT 7:52 PM CDT
Nautical Twilight 6:02 AM CDT 8:20 PM CDT
Astronomical Twilight 5:32 AM CDT 8:50 PM CDT
Moon 1:32 AM CDT (9/10) 3:44 PM CDT (9/10)
Length of Visible Light 13h 20m
Length of Day
12h 31m
Waning Crescent, 30% of the Moon is Illuminated
Sep 10
Waning Crescent
Sep 15
New
Sep 22
First Quarter
Sep 29
Full
Oct 8
Last Quarter

Hourly Weather History & Observations

Time (CDT) Temp. Heat Index Dew Point Humidity Pressure Visibility Wind Dir Wind Speed Gust Speed Precip Events Conditions
12:56 AM 61.0 °F - 54.0 °F 78% 30.06 in 10.0 mi Calm Calm - N/A   Clear
1:56 AM 62.1 °F - 54.0 °F 75% 30.06 in 10.0 mi Calm Calm - N/A   Clear
2:56 AM 60.1 °F - 54.0 °F 80% 30.05 in 10.0 mi Calm Calm - N/A   Clear
3:56 AM 62.1 °F - 54.0 °F 75% 30.06 in 10.0 mi Calm Calm - N/A   Clear
4:56 AM 60.1 °F - 54.0 °F 80% 30.07 in 10.0 mi Calm Calm - N/A   Clear
5:56 AM 57.0 °F - 54.0 °F 89% 30.08 in 10.0 mi Calm Calm - N/A   Clear
6:56 AM 57.9 °F - 54.0 °F 87% 30.11 in 10.0 mi Calm Calm - N/A   Scattered Clouds
7:56 AM 64.0 °F - 57.0 °F 78% 30.12 in 10.0 mi Calm Calm - N/A   Partly Cloudy
8:56 AM 72.0 °F - 59.0 °F 64% 30.12 in 10.0 mi Calm Calm - N/A   Partly Cloudy
9:56 AM 79.0 °F - 55.9 °F 45% 30.13 in 10.0 mi SE 4.6 mph - N/A   Partly Cloudy
10:56 AM 82.0 °F 81.2 °F 53.1 °F 37% 30.13 in 10.0 mi Variable 3.5 mph - N/A   Clear
11:56 AM 84.9 °F - 52.0 °F 32% 30.12 in 10.0 mi SSE 4.6 mph - N/A   Partly Cloudy
12:56 PM 87.1 °F - 51.1 °F 29% 30.10 in 10.0 mi Calm Calm - N/A   Scattered Clouds
1:56 PM 89.1 °F - 52.0 °F 28% 30.07 in 10.0 mi Variable 3.5 mph - N/A   Scattered Clouds
2:56 PM 90.0 °F - 51.1 °F 26% 30.05 in 10.0 mi ENE 8.1 mph - N/A   Scattered Clouds
3:56 PM 90.0 °F - 48.9 °F 24% 30.04 in 10.0 mi Calm Calm - N/A   Partly Cloudy
4:56 PM 89.1 °F - 52.0 °F 28% 30.02 in 10.0 mi Variable 6.9 mph - N/A   Partly Cloudy
5:56 PM 88.0 °F - 52.0 °F 29% 30.02 in 10.0 mi East 4.6 mph - N/A   Partly Cloudy
6:56 PM 84.9 °F 83.2 °F 53.1 °F 33% 30.02 in 10.0 mi ESE 5.8 mph - N/A   Partly Cloudy
7:56 PM 75.9 °F - 55.0 °F 48% 30.02 in 10.0 mi SE 6.9 mph - N/A   Partly Cloudy
8:56 PM 78.1 °F - 55.9 °F 46% 30.04 in 10.0 mi SE 8.1 mph - N/A   Clear
9:56 PM 75.9 °F - 57.0 °F 52% 30.06 in 10.0 mi SE 5.8 mph - N/A   Clear
10:56 PM 71.1 °F - 57.0 °F 61% 30.06 in 10.0 mi SE 3.5 mph - N/A   Clear
11:56 PM 69.1 °F - 57.9 °F 68% 30.06 in 10.0 mi SE 4.6 mph - N/A   Clear